Weather History for Calgary Springbank, AB

Change the Weather History Date:

Sunday, August 17, 2014

  Actual Average Record
Temperature  
Mean Temperature 63 °F -  
Max Temperature 73 °F 63 °F 87 °F (2001)
Min Temperature 53 °F 38 °F 30 °F (2002)
Degree Days  
Heating Degree Days 2    
Growing Degree Days 13 (Base 50)    
Moisture  
Dew Point 55 °F    
Average Humidity 77    
Maximum Humidity 100    
Minimum Humidity 53    
Precipitation  
Precipitation 0.00 in - - ()
Sea Level Pressure  
Sea Level Pressure 30.05 in    
Wind  
Wind Speed 8 mph ()    
Max Wind Speed 21 mph    
Max Gust Speed 29 mph    
Visibility 9.0 miles    
Events      
Averages and records for this station are not official NWS values.
T = Trace of Precipitation, MM = Missing Value Source: Averaged Metar Reports

Daily Weather History Graph

Daily Weather History Graph

Search for Another Location

Airport:

Trip Planner

Search our weather history database for the weather conditions in past years. The results will help you decide how hot, cold, wet, or windy it might be!

Date:

Astronomy

Aug. 17, 2014 Rise Set
Actual Time 6:27 AM MDT 8:54 PM MDT
Civil Twilight 5:50 AM MDT 9:31 PM MDT
Nautical Twilight 5:03 AM MDT 10:17 PM MDT
Astronomical Twilight 4:08 AM MDT 11:11 PM MDT
Moon No Moon Rise 3:11 PM MDT (8/17)
Length of Visible Light 15h 40m
Length of Day
14h 27m
Waning Gibbous, 48% of the Moon is Illuminated
Aug 17
Waning Gibbous
Aug 25
New
Sep 2
First Quarter
Sep 8
Full
Sep 15
Last Quarter

Hourly Weather History & Observations

Time (MDT) Temp. Dew Point Humidity Pressure Visibility Wind Dir Wind Speed Gust Speed Precip Events Conditions
12:00 AM 57.2 °F 55.4 °F 94% 29.99 in 9.0 mi WNW 8.1 mph - N/A   Mostly Cloudy
1:00 AM 57.2 °F 55.4 °F 94% 30.01 in 9.0 mi WNW 5.8 mph - N/A   Mostly Cloudy
2:00 AM 57.2 °F 55.4 °F 94% 30.00 in 9.0 mi WNW 8.1 mph - N/A   Mostly Cloudy
3:00 AM 53.6 °F 53.6 °F 100% 30.00 in 9.0 mi WNW 6.9 mph - N/A   Scattered Clouds
4:00 AM 55.4 °F 53.6 °F 94% 30.01 in 9.0 mi WNW 4.6 mph - N/A   Overcast
5:00 AM 55.4 °F 53.6 °F 94% 30.01 in 9.0 mi NW 6.9 mph - N/A   Overcast
6:00 AM 55.4 °F 53.6 °F 94% 30.03 in 9.0 mi NNW 3.5 mph - N/A   Overcast
7:00 AM 55.4 °F 53.6 °F 94% 30.05 in 9.0 mi NW 8.1 mph - N/A   Scattered Clouds
8:00 AM 57.2 °F 55.4 °F 94% 30.07 in 9.0 mi NNW 6.9 mph - N/A   Overcast
9:00 AM 60.8 °F 55.4 °F 82% 30.07 in 9.0 mi WNW 12.7 mph - N/A   Mostly Cloudy
10:00 AM 64.4 °F 55.4 °F 73% 30.06 in 9.0 mi NW 12.7 mph - N/A   Partly Cloudy
12:00 PM 69.8 °F 55.4 °F 60% 30.08 in 9.0 mi NNW 12.7 mph 20.7 mph N/A   Partly Cloudy
1:00 PM 71.6 °F 55.4 °F 57% 30.08 in 9.0 mi NW 16.1 mph - N/A   Clear
2:00 PM 69.8 °F 53.6 °F 56% 30.09 in 9.0 mi NNW 20.7 mph 28.8 mph N/A   Mostly Cloudy
3:00 PM 69.8 °F 53.6 °F 56% 30.10 in 9.0 mi NNW 16.1 mph 26.5 mph N/A   Overcast
4:00 PM 71.6 °F 53.6 °F 53% 30.09 in 9.0 mi NW 15.0 mph 23.0 mph N/A   Scattered Clouds
5:00 PM 71.6 °F 55.4 °F 57% 30.08 in 9.0 mi NW 11.5 mph 18.4 mph N/A   Clear
6:00 PM 73.4 °F 55.4 °F 53% 30.06 in 9.0 mi NNW 8.1 mph - N/A   Scattered Clouds
7:00 PM 71.6 °F 53.6 °F 53% 30.06 in 9.0 mi WNW 6.9 mph - N/A   Clear
8:00 PM 68.0 °F 59.0 °F 73% 30.06 in 9.0 mi North 3.5 mph - N/A   Clear
9:00 PM 64.4 °F 53.6 °F 68% 30.06 in 9.0 mi SE 2.3 mph - N/A   Clear
10:00 PM 55.4 °F 53.6 °F 94% 30.09 in 9.0 mi SW 8.1 mph - N/A   Clear
11:00 PM 57.2 °F 53.6 °F 88% 30.07 in 9.0 mi SW 4.6 mph - N/A   Clear